Wetbulb
55.57 55.02 54.24 54.41 55.92 58.03 58.46 59.72 61.10 61.79 63.70 63.87 64.69 65.01 65.33 64.87 64.31 66.88 69.87 69.78 69.19 69.00 69.85 70.05 70.46 71.45 69.81 68.35 67.92 66.42 64.39 62.53 59.90 61.85 63.20 63.00 62.45 62.38 62.65 63.13 63.64 62.58 61.99
54.85 53.87 53.92 55.11 55.49 54.81 55.59 57.37 59.16 59.59 61.31 62.46 63.15 63.56 64.04 64.57 65.09 63.26 65.73 70.96 70.35 69.48 69.90 70.01 70.56 71.07 69.91 68.77 67.94 65.86 63.80 62.65 61.04 59.83 61.44 61.82 61.65 61.94 61.97 61.22 62.18 63.67 62.69
52.80 51.81 50.03 51.05 52.56 51.30 53.30 55.05 57.27 58.74 58.80 59.51 61.31 61.41 62.48 63.66 65.09 65.82 64.22 67.78 70.49 70.81 70.99 70.41 70.53 69.35 68.99 69.48 66.39 64.77 63.60 64.09 61.94 60.54 60.23 61.15 60.42 61.72 60.67 60.95 61.21 60.86 63.61
52.09 50.59 49.66 49.74 50.21 51.08 51.91 52.09 53.26 54.65 56.03 57.51 58.50 60.03 62.00 62.68 62.96 65.16 66.59 64.89 68.82 71.10 71.41 70.60 69.47 69.60 69.30 69.18 66.55 64.37 63.50 62.46 61.96 60.76 60.02 59.66 59.62 60.60 60.55 58.91 58.05 59.29 59.06
51.36 50.31 50.20 51.23 51.86 51.63 51.38 51.79 53.07 53.17 53.94 56.15 56.53 57.35 59.29 61.41 63.06 63.48 65.46 66.22 66.30 68.63 69.81 70.33 69.97 69.47 66.58 67.25 67.11 64.21 62.79 61.19 60.80 59.10 58.75 58.25 58.29 58.75 59.03 58.55 57.41 57.56 58.38
51.18 50.54 51.33 51.73 51.36 50.70 50.62 51.23 51.57 52.21 52.84 54.36 54.86 55.20 56.92 60.10 55.69 54.15 57.40 64.90 66.94 69.02 69.33 69.42 70.47 64.76 63.86 60.43 60.75 61.92 63.26 61.82 60.18 59.33 58.01 56.90 57.44 58.30 58.87 58.47 57.21 56.64 57.37
52.48 52.95 52.97 52.37 52.35 51.40 51.44 51.06 50.68 50.53 50.86 50.83 52.68 54.42 55.42 58.29 52.82 51.97 53.93 60.67 66.17 68.61 69.58 69.27 69.29 69.37 63.29 63.52 56.96 56.32 57.73 58.09 60.58 60.92 59.09 58.64 58.18 59.37 59.44 57.99 57.66 56.48 56.44
51.40 52.41 52.76 52.34 51.77 51.12 49.85 49.10 48.90 48.43 48.00 49.16 50.44 52.04 53.88 58.03 51.83 50.73 52.29 60.31 63.63 68.58 68.88 68.79 67.38 63.04 62.75 61.84 62.01 61.77 60.63 60.36 60.13 62.80 61.27 60.58 60.53 60.98 60.53 59.85 58.86 57.50 58.81
51.20 50.82 51.94 52.45 50.40 49.32 48.22 47.42 47.48 47.07 47.41 48.43 49.49 50.00 51.57 55.91 51.06 50.03 53.09 61.61 62.82 66.68 68.21 68.39 66.22 64.49 53.69 55.33 62.16 61.17 59.09 57.15 51.21 49.82 51.07 50.20 48.75 49.47 55.54 59.74 57.93 57.77 57.37
49.87 50.57 51.72 52.12 50.13 48.10 47.51 47.39 47.44 47.27 48.56 49.62 50.35 52.65 53.29 56.63 53.17 50.14 53.23 61.46 63.07 66.21 67.08 65.67 57.23 62.96 50.38 51.81 62.33 61.27 58.35 56.48 56.62 56.10 55.38 53.38 53.12 53.22 50.67 59.58 59.09 58.41 56.88
49.40 49.69 50.90 49.23 48.34 48.63 48.62 48.22 48.26 48.20 48.76 48.60 49.47 52.09 55.65 57.11 58.61 50.99 50.60 59.60 64.40 65.42 66.33 64.63 63.11 50.56 48.71 48.93 56.08 61.75 59.58 58.31 55.64 57.81 57.23 57.21 56.92 56.70 58.39 59.53 59.63 59.53 58.41
48.61 48.87 48.84 48.01 48.92 49.53 48.09 49.07 49.21 49.51 49.12 49.07 49.86 51.41 55.05 57.23 53.91 53.53 49.11 47.82 59.04 65.86 64.86 63.90 57.55 48.62 47.26 46.75 54.33 46.57 48.57 54.89 58.93 57.41 56.76 55.72 56.08 56.14 58.15 59.27 58.93 60.27 60.81
47.10 46.82 47.20 48.09 48.47 49.18 48.68 48.43 49.46 50.50 50.21 50.59 51.96 53.53 54.63 56.55 58.13 51.84 46.57 46.57 51.47 65.01 64.43 55.74 45.65 44.94 44.58 47.46 44.76 46.57 50.20 58.67 57.09 56.10 56.64 56.82 56.32 57.17 57.95 59.47 60.43 60.04 59.74
45.73 46.80 47.66 47.81 47.97 48.99 50.03 50.87 50.80 50.39 50.92 51.74 51.88 52.99 53.70 55.35 59.05 56.70 54.80 54.31 51.43 53.83 50.07 50.08 50.68 51.28 51.08 49.69 51.13 52.90 58.45 57.45 56.40 55.46 55.46 57.53 57.87 55.92 55.82 58.41 58.71 58.39 58.07
46.40 47.00 47.53 48.47 48.70 48.81 49.34 49.91 51.25 52.28 51.52 51.34 52.63 53.59 53.27 55.07 59.63 56.60 57.65 60.43 59.03 55.44 55.48 57.16 57.04 56.24 56.22 56.86 55.30 56.32 57.53 57.43 56.58 55.92 55.54 55.19 55.35 56.96 56.26 57.85 58.51 58.39 57.47
45.63 46.72 47.87 48.73 48.96 49.44 49.88 50.40 45.24 43.92 43.07 43.23 45.23 51.32 56.94 52.87 48.20 47.84 49.83 47.66 47.30 49.09 57.97 57.42 56.56 56.32 56.36 56.74 55.84 55.16 58.83 55.96 56.36 57.06 57.06 55.36 56.88 56.36 55.11 56.92 57.85 57.15 55.52
46.30 47.22 48.44 48.19 49.60 49.36 49.50 49.03 48.12 47.08 43.13 43.85 42.40 44.54 43.31 49.29 46.21 47.11 47.11 45.85 46.03 52.10 57.73 57.28 57.26 56.42 56.94 57.76 57.12 55.66 56.14 56.64 57.68 58.36 58.01 57.35 57.22 57.04 54.17 57.23 57.61 55.96 55.38
47.20 45.71 48.11 49.56 52.04 51.71 50.17 50.65 51.18 51.78 51.03 49.65 43.13 47.71 43.85 45.99 47.11 46.21 45.30 49.87 56.46 56.47 57.01 56.26 56.16 56.62 56.95 57.33 57.32 57.10 56.94 57.21 56.84 56.66 57.44 57.71 57.50 56.84 54.06 55.41 55.81 55.53 55.84
48.26 50.79 54.15 56.56 52.96 52.55 53.15 52.61 53.65 54.97 54.32 48.87 50.10 46.86 43.73 42.76 44.58 45.30 47.80 58.94 57.75 56.54 56.36 56.02 56.58 58.21 58.25 58.17 58.20 58.02 57.90 57.66 56.70 56.18 55.96 56.02 56.84 56.41 55.31 55.86 54.87 44.21 49.57
50.97 47.15 49.60 57.40 57.78 58.00 57.40 56.26 55.40 53.92 55.32 56.46 55.59 52.22 52.46 54.34 57.58 57.95 58.18 58.69 57.83 57.16 56.92 56.34 57.86 58.51 57.66 58.50 57.84 57.30 56.46 56.28 56.86 57.94 57.88 57.47 57.07 56.86 56.04 56.12 56.66 55.69 55.55
49.14 52.93 46.75 60.21 59.51 58.35 58.11 56.97 57.56 56.36 56.02 55.96 55.98 54.75 45.85 58.69 58.25 57.75 58.64 58.45 57.69 57.26 57.10 57.10 58.75 59.26 57.92 58.32 57.80 57.14 57.66 56.28 55.81 57.18 57.20 57.95 57.71 56.84 56.93 56.75 56.23 56.29 56.28
47.68 53.32 59.73 60.23 59.89 59.46 58.02 57.30 56.60 56.66 56.74 56.20 55.73 51.03 43.31 58.43 57.86 57.94 58.92 59.39 59.15 58.01 58.56 58.70 58.66 58.85 58.48 60.20 59.58 58.94 57.09 56.40 56.50 56.52 57.94 57.88 57.85 57.20 56.63 56.42 56.36 56.04 55.55
48.10 53.30 59.90 59.60 59.05 52.88 56.92 56.79 56.99 57.01 57.15 57.35 57.69 57.38 56.78 56.02 55.68 55.42 54.60 55.08 55.56 55.06 55.64 56.36 58.56 58.21 59.87 59.83 60.02 59.45 58.85 57.54 57.29 57.72 58.02 57.80 57.19 57.00 56.94 56.38 56.32 55.88 54.90
48.41 58.03 59.25 59.94 58.73 57.89 57.45 56.59 56.69 52.60 57.33 56.68 55.29 54.10 52.74 51.46 50.27 49.44 49.48 49.94 50.17 49.84 49.13 50.05 51.90 55.90 56.14 55.87 55.57 55.31 59.06 60.00 59.33 57.83 57.79 58.39 57.55 53.82 54.60 53.14 52.81 52.35 50.18
52.36 59.68 59.57 59.42 58.09 57.59 57.03 57.43 57.16 55.70 54.23 52.48 50.80 49.63 48.37 47.15 45.86 45.37 45.09 45.09 45.54 45.13 44.77 45.79 46.99 48.07 50.47 51.90 51.61 49.95 41.03 39.86 50.67 46.19 53.75 52.60 50.66 49.65 49.14 48.41 48.07 48.29 48.52
59.78 59.90 58.99 57.94 57.47 57.25 55.72 54.28 52.57 50.62 48.89 48.37 47.33 46.49 44.93 43.63 42.67 41.90 41.62 41.15 40.74 40.58 40.69 41.46 41.95 42.48 42.90 42.69 41.87 37.71 37.89 38.65 43.05 40.50 48.95 48.17 46.69 45.77 45.37 44.12 43.47 42.85 41.54
MSLP
1005.04 1005.25 1005.47 1005.63 1005.72 1005.88 1006.02 1005.81 1005.98 1005.80 1005.85 1005.89 1006.13 1006.19 1005.94 1006.03 1005.87 1005.54 1005.44 1005.04 1004.94 1005.42 1005.39 1005.44 1005.39 1005.41 1005.86 1006.24 1006.41 1007.03 1007.33 1007.95 1008.10 1008.59 1008.38 1008.23 1008.76 1008.92 1009.07 1009.18 1009.39 1009.76 1009.72
1004.55 1004.98 1005.17 1005.42 1005.44 1005.76 1005.88 1005.93 1006.04 1006.05 1005.99 1005.86 1006.11 1006.03 1005.74 1005.45 1005.12 1004.82 1004.53 1004.29 1004.38 1004.33 1004.42 1004.63 1004.47 1004.66 1004.78 1005.51 1005.74 1006.44 1006.80 1007.18 1007.35 1008.33 1008.45 1008.54 1008.66 1008.87 1008.97 1009.13 1009.29 1009.46 1009.45
1003.72 1004.15 1004.56 1004.86 1005.16 1005.46 1005.53 1005.51 1005.56 1005.68 1005.49 1005.13 1005.34 1005.22 1005.08 1004.87 1004.50 1003.70 1003.39 1003.39 1002.95 1002.94 1003.39 1003.63 1003.61 1004.08 1004.31 1004.53 1005.19 1005.90 1006.44 1006.43 1006.61 1007.33 1007.98 1008.06 1008.29 1008.46 1008.99 1009.12 1009.26 1009.59 1009.31
1002.91 1003.32 1003.70 1004.10 1004.49 1004.87 1005.07 1005.28 1005.38 1005.35 1005.29 1004.91 1004.87 1004.55 1004.27 1004.11 1003.91 1003.01 1002.32 1002.46 1002.22 1002.11 1002.17 1002.34 1002.79 1003.27 1003.53 1003.88 1004.69 1005.41 1005.95 1005.88 1006.30 1006.97 1007.35 1007.64 1007.92 1008.32 1008.78 1009.27 1009.49 1009.58 1009.37
1002.16 1002.59 1002.96 1003.25 1003.57 1003.87 1004.13 1004.31 1004.44 1004.65 1004.91 1004.81 1004.44 1004.08 1003.65 1003.15 1002.66 1002.53 1002.01 1001.74 1001.72 1001.61 1001.56 1001.52 1001.97 1002.35 1002.64 1003.01 1003.94 1004.85 1005.22 1005.59 1006.13 1006.79 1007.14 1007.50 1008.01 1008.44 1008.66 1008.88 1009.23 1009.34 1009.12
1001.53 1001.78 1001.90 1002.20 1002.51 1002.84 1003.18 1003.51 1003.68 1003.87 1004.00 1004.12 1004.03 1003.65 1002.96 1002.21 1002.13 1002.12 1001.97 1001.65 1001.07 1000.80 1000.88 1000.72 1001.03 1001.60 1002.01 1002.56 1003.10 1003.71 1004.27 1004.82 1005.59 1006.08 1006.83 1006.92 1007.44 1007.73 1008.11 1008.47 1008.89 1009.16 1009.16
1001.59 1001.39 1001.40 1001.56 1001.79 1001.92 1002.20 1002.56 1002.86 1003.20 1003.34 1003.37 1003.32 1003.12 1002.56 1001.96 1001.48 1001.21 1001.16 1001.05 1000.49 1000.05 999.85 1000.06 1000.57 1000.89 1001.79 1002.64 1002.91 1003.44 1004.01 1004.38 1004.50 1005.09 1006.00 1006.39 1006.93 1007.03 1007.49 1008.01 1008.25 1008.51 1008.60
1000.93 1000.86 1000.71 1000.84 1000.91 1001.04 1001.33 1001.72 1001.99 1002.34 1002.50 1002.57 1002.45 1002.05 1001.86 1001.09 1000.47 1000.38 1000.38 1000.14 999.95 999.23 999.04 999.07 999.71 1000.75 1001.26 1002.09 1002.75 1003.70 1004.37 1004.49 1004.80 1004.63 1005.40 1005.78 1006.10 1006.37 1006.72 1006.88 1007.47 1008.05 1008.36
999.93 999.86 999.71 999.77 999.86 1000.11 1000.49 1000.93 1001.31 1001.60 1001.68 1001.59 1001.55 1001.23 1000.71 1000.14 999.66 999.66 999.85 999.57 999.16 998.25 998.17 998.54 999.55 999.97 1001.13 1001.51 1002.70 1003.60 1004.31 1004.87 1005.01 1004.86 1005.30 1005.63 1005.91 1006.23 1006.43 1006.93 1007.54 1007.93 1008.35
998.74 998.54 998.43 998.41 998.60 998.93 999.31 999.80 1000.14 1000.40 1000.39 1000.39 1000.08 1000.02 999.51 999.08 998.60 998.62 998.82 998.97 998.50 997.58 997.55 998.41 998.89 999.28 1000.91 1001.49 1002.27 1003.20 1004.47 1004.74 1005.02 1005.58 1005.89 1005.87 1006.09 1006.29 1006.35 1006.39 1006.85 1007.41 1007.86
998.66 998.28 998.09 997.84 997.93 997.96 998.23 998.60 999.02 999.35 999.40 999.35 999.22 998.73 998.34 997.92 997.36 997.60 997.79 998.22 997.69 997.15 997.43 998.77 998.87 999.93 1000.77 1001.32 1002.05 1002.85 1003.46 1004.01 1004.92 1005.33 1005.69 1005.98 1006.28 1006.40 1006.43 1006.45 1006.51 1006.75 1007.41
997.68 997.35 997.15 997.00 997.05 997.10 997.29 997.51 997.92 998.19 998.15 998.19 998.09 997.40 996.99 996.68 996.45 996.41 996.62 997.08 996.72 996.61 997.25 998.28 999.03 1000.01 1000.86 1001.73 1002.08 1002.45 1003.02 1003.80 1004.64 1005.19 1005.73 1006.13 1006.32 1006.48 1006.44 1006.45 1006.53 1006.61 1006.77
996.45 996.22 996.11 995.91 995.77 995.92 996.10 996.15 996.45 996.76 996.97 996.88 996.61 996.10 995.77 995.62 995.33 995.24 995.59 995.69 995.91 996.12 996.85 997.69 999.24 1000.22 1001.40 1001.91 1002.25 1002.61 1003.06 1003.84 1004.62 1005.31 1005.76 1006.03 1006.15 1006.25 1006.42 1006.59 1006.65 1006.78 1006.98
995.44 995.20 994.96 994.76 994.58 994.57 994.58 994.65 994.77 994.95 995.27 995.35 995.33 995.12 995.00 994.90 994.39 994.36 994.85 995.32 995.15 995.72 996.90 998.27 999.37 1000.06 1000.75 1002.07 1002.85 1002.94 1003.21 1003.91 1004.47 1005.06 1005.54 1005.87 1006.12 1006.38 1006.59 1006.59 1006.83 1006.94 1007.15
994.20 993.83 993.57 993.30 993.06 992.89 992.83 993.05 993.23 993.41 993.77 994.23 994.23 994.42 994.39 993.89 993.29 993.72 994.02 994.65 995.21 995.24 996.80 998.32 999.66 1000.53 1001.71 1002.36 1002.85 1003.11 1003.58 1004.04 1004.43 1004.89 1005.36 1005.65 1006.01 1006.35 1006.68 1006.73 1006.89 1007.03 1007.05
992.72 992.52 992.03 991.52 990.99 991.01 991.02 991.41 991.87 992.28 992.75 993.00 993.14 993.42 993.18 992.95 992.60 993.16 993.26 993.60 995.06 996.07 997.09 998.26 999.55 1000.52 1001.28 1002.07 1002.69 1003.23 1003.55 1003.81 1004.22 1004.67 1004.95 1005.35 1005.83 1006.24 1006.55 1006.72 1006.82 1006.96 1007.13
991.40 990.48 989.98 988.92 988.51 988.93 989.53 989.99 990.38 991.13 991.03 991.07 991.39 991.75 992.44 992.97 992.10 992.66 992.55 994.50 995.87 996.12 997.13 998.49 999.31 1000.23 1000.93 1001.66 1002.35 1002.75 1003.16 1003.55 1003.80 1004.18 1004.61 1005.17 1005.60 1006.03 1006.39 1006.54 1006.73 1006.95 1007.04
989.63 988.69 987.76 986.26 985.14 984.16 985.69 987.43 988.79 989.47 989.97 990.21 990.44 991.08 991.38 991.88 990.99 992.17 993.88 994.87 996.34 996.87 997.38 998.31 999.31 999.97 1000.56 1001.27 1001.92 1002.43 1002.93 1003.37 1003.67 1004.08 1004.57 1005.00 1005.41 1005.79 1006.23 1006.32 1006.47 1006.65 1006.79
987.97 986.40 985.31 984.51 984.18 983.23 983.73 985.66 987.13 988.00 988.27 988.97 989.30 991.19 990.07 990.95 991.89 993.11 994.05 994.39 995.69 996.87 997.73 998.48 998.97 999.59 1000.31 1001.03 1001.55 1002.06 1002.56 1003.05 1003.57 1004.14 1004.61 1005.00 1005.33 1005.64 1006.03 1006.26 1006.47 1006.51 1006.57
986.98 985.38 984.59 984.48 984.01 983.88 984.29 985.44 986.63 987.62 989.01 988.70 990.72 991.71 992.04 992.08 992.96 993.89 994.16 995.03 996.20 997.05 997.69 998.25 998.87 999.56 1000.09 1000.62 1001.25 1001.73 1002.35 1002.99 1003.58 1004.04 1004.45 1004.79 1005.14 1005.49 1005.91 1006.18 1006.37 1006.57 1006.67
987.19 985.81 983.48 984.27 984.81 984.49 985.68 986.08 987.25 987.59 989.10 990.39 991.41 991.51 991.80 992.47 993.39 994.29 995.15 996.03 996.53 997.05 997.61 998.29 998.91 999.56 1000.14 1000.64 1001.13 1001.70 1002.30 1002.94 1003.40 1003.77 1004.29 1004.69 1005.11 1005.51 1005.71 1006.00 1006.23 1006.39 1006.58
987.70 986.34 984.85 984.98 985.33 985.90 986.60 987.39 988.14 988.51 989.33 990.18 991.33 992.36 992.48 993.12 994.35 995.15 995.69 996.17 996.61 997.12 997.68 998.23 998.86 999.47 1000.08 1000.49 1001.05 1001.68 1002.32 1002.95 1003.44 1003.79 1004.24 1004.63 1005.07 1005.47 1005.67 1005.93 1006.23 1006.43 1006.68
987.09 986.58 984.84 985.59 986.25 986.92 987.76 988.59 989.05 989.80 990.75 991.69 992.42 993.26 994.22 994.98 995.64 996.16 996.62 997.03 997.37 998.01 998.46 998.81 999.24 999.93 1000.46 1000.87 1001.24 1001.71 1002.26 1002.82 1003.14 1003.52 1004.07 1004.59 1005.08 1005.53 1005.73 1006.06 1006.36 1006.72 1007.00
987.75 986.26 986.10 986.57 987.14 987.89 988.82 989.70 990.53 991.31 992.08 992.94 993.72 994.65 995.45 996.27 996.84 997.33 997.66 997.94 998.43 999.18 999.73 1000.02 1000.34 1000.65 1001.06 1001.47 1001.82 1001.99 1002.33 1002.64 1002.94 1003.67 1004.14 1004.75 1005.30 1005.71 1006.13 1006.53 1006.93 1007.29 1007.62
988.25 987.35 987.32 987.55 988.14 988.97 989.67 990.43 991.33 992.30 993.15 994.15 995.20 996.06 996.82 997.27 997.78 998.18 998.57 999.17 999.82 1000.32 1000.99 1001.28 1001.60 1001.84 1002.01 1002.33 1002.64 1002.84 1003.05 1003.32 1003.65 1004.12 1004.72 1005.32 1005.96 1006.48 1007.01 1007.45 1007.78 1008.05 1008.20
987.57 987.78 988.19 988.54 989.25 990.05 990.84 991.71 992.82 993.83 994.76 995.63 996.40 997.04 997.47 997.97 998.72 999.35 1000.07 1000.65 1001.23 1001.82 1002.28 1002.72 1002.91 1002.93 1003.19 1003.59 1003.76 1003.83 1003.95 1004.26 1004.78 1005.12 1005.54 1006.15 1006.75 1007.49 1007.95 1008.28 1008.59 1008.83 1009.21
Wind_Speed
9 7 6 5 5 4 4 4 5 4 5 4 5 7 8 10 9 9 11 14 14 12 11 11 13 12 8 8 5 5 5 4 4 2 1 2 3 5 4 4 4 3 4
8 7 6 4 3 3 3 4 5 6 6 6 6 8 9 11 9 9 12 11 13 14 14 13 15 9 11 8 6 7 5 5 5 5 2 2 4 4 4 3 2 2 0
8 8 7 6 5 2 4 6 5 6 7 5 8 10 11 11 14 13 10 13 13 12 12 14 15 11 10 8 6 6 4 3 4 5 4 2 2 2 2 2 2 3 1
9 9 9 8 7 6 4 4 5 7 12 12 12 13 13 12 14 16 14 13 14 13 13 14 12 12 12 11 8 8 5 5 3 4 3 3 3 2 3 3 2 2 2
8 8 9 9 8 8 8 7 7 6 9 13 15 15 15 13 11 14 15 16 15 15 11 12 12 13 14 12 8 7 6 5 4 4 3 3 3 3 5 3 3 3 3
7 9 8 8 8 8 8 8 8 8 9 11 13 15 18 13 14 16 15 17 17 12 12 12 12 14 14 16 13 12 11 7 6 5 3 4 4 4 4 4 4 3 3
5 6 8 8 10 10 9 9 9 8 7 7 12 15 18 18 17 17 19 15 16 14 14 12 10 9 11 9 9 9 6 9 9 7 6 5 5 6 6 5 5 3 3
8 8 7 8 11 10 10 8 7 6 7 8 13 16 17 16 16 17 19 16 15 16 15 14 11 10 11 12 10 8 6 5 5 5 6 6 5 5 7 7 6 4 2
9 8 9 11 9 8 8 8 7 6 8 10 12 16 19 18 18 19 17 14 15 18 13 11 12 13 15 16 12 9 6 3 5 9 8 8 8 6 4 5 4 6 2
14 14 14 15 11 8 8 8 7 6 11 11 14 15 18 17 20 19 17 10 14 12 10 9 16 15 18 16 12 10 8 6 7 5 3 5 4 3 6 5 5 7 3
7 6 5 5 7 7 7 6 8 10 12 14 16 15 16 15 17 17 18 13 12 11 9 8 8 17 17 14 12 9 9 10 7 6 5 4 3 2 2 3 4 5 4
13 12 9 8 9 9 10 10 11 13 13 14 16 14 13 14 18 18 18 20 16 12 10 8 8 17 15 13 9 12 16 11 5 4 4 3 3 2 2 3 2 4 3
14 14 14 14 15 14 14 14 11 12 12 13 12 12 11 10 11 16 19 20 18 12 10 13 17 16 15 9 13 16 12 7 5 4 4 3 3 3 3 2 4 5 3
16 14 12 11 12 13 12 11 11 12 12 11 11 11 9 9 9 6 6 7 13 13 18 14 13 12 12 10 7 5 6 5 5 5 4 3 3 2 2 1 2 2 1
16 14 14 12 14 14 15 13 12 14 13 12 11 9 10 11 10 11 13 10 10 14 17 12 10 9 8 7 5 4 5 5 5 4 4 4 3 3 2 2 1 2 2
15 12 12 14 15 14 13 12 12 7 8 14 18 15 12 17 14 17 21 23 20 19 12 12 10 9 9 8 7 4 5 5 4 4 5 4 4 3 3 2 2 2 3
14 17 14 19 15 15 15 14 12 7 14 21 21 21 10 11 21 22 28 28 18 15 12 10 10 9 8 7 7 4 4 4 5 5 6 5 4 4 4 3 3 3 2
17 26 18 18 17 18 18 16 13 12 8 4 8 13 13 27 33 32 23 19 11 9 10 10 9 8 8 7 6 5 4 5 4 4 4 4 4 4 3 1 2 2 2
17 14 12 5 1 7 13 16 13 11 9 9 11 9 12 18 27 22 14 12 12 10 8 8 8 8 7 7 6 5 6 6 5 5 4 4 4 3 2 3 3 1 3
15 20 7 7 6 9 9 13 10 10 10 13 12 12 13 16 14 10 9 11 10 9 8 8 7 6 5 6 5 6 6 6 5 4 4 4 4 4 3 3 2 2 2
10 12 10 12 10 10 11 11 10 10 11 14 13 10 12 12 11 10 11 10 9 8 8 7 7 7 5 5 5 5 6 5 5 5 5 4 4 4 4 3 2 2 2
9 11 6 6 10 11 12 12 11 12 13 13 12 8 11 11 11 10 10 10 9 8 7 7 5 6 5 6 7 6 6 5 5 5 4 4 4 4 3 2 3 2 2
10 10 5 9 10 14 14 11 12 14 14 13 11 11 10 10 9 10 10 9 9 8 6 5 5 5 5 5 4 4 5 6 5 5 5 4 4 3 3 3 3 3 3
8 7 7 8 11 12 13 14 13 13 12 12 12 11 10 9 10 11 9 9 10 9 8 8 8 9 8 7 5 5 7 6 6 5 7 6 6 6 6 5 4 6 4
5 2 7 9 11 12 14 14 13 14 13 12 11 10 10 10 10 10 10 10 9 10 10 8 7 9 11 12 11 10 11 11 10 9 8 9 10 10 7 6 6 6 6
2 5 8 8 9 12 12 13 13 12 12 11 10 10 10 11 10 10 9 10 9 9 10 8 10 13 12 10 10 10 12 12 11 11 9 9 10 8 7 9 10 7 7
Wind_Direction
200 206 219 230 236 246 250 250 262 286 293 284 275 277 271 253 243 243 233 223 208 223 221 224 233 222 214 228 201 203 185 191 160 284 121 94 115 140 135 113 135 173 211
172 181 190 212 273 273 284 282 267 252 246 240 247 262 271 279 260 233 247 232 211 220 227 228 233 215 210 200 201 206 195 216 141 170 165 172 138 173 159 151 189 215 113
176 175 181 182 160 217 307 323 317 300 286 276 271 266 268 271 278 265 241 253 240 226 223 214 224 204 212 206 191 197 214 203 165 150 167 170 151 148 143 128 166 239 180
183 186 189 188 187 195 213 262 288 305 303 295 286 282 273 268 270 282 270 247 248 238 223 211 206 205 210 202 188 195 204 169 163 144 143 142 125 146 127 151 192 242 237
191 188 187 187 187 189 204 217 233 245 272 284 284 282 280 272 271 273 269 260 247 243 212 208 204 205 201 188 175 191 176 164 148 152 145 125 155 149 184 178 174 207 211
204 199 196 194 193 193 200 211 219 235 253 266 275 281 280 276 265 265 272 266 244 231 219 219 208 191 188 177 168 167 174 166 170 146 207 156 186 172 157 166 165 174 210
274 238 209 202 205 208 212 211 212 217 225 253 270 279 273 268 259 263 269 270 257 233 221 222 198 195 168 162 148 138 147 179 164 160 156 173 176 190 157 165 188 170 188
241 235 226 219 216 207 202 211 217 201 221 241 265 271 275 275 255 259 267 272 260 231 220 208 184 164 162 152 145 139 146 117 132 137 162 178 180 179 179 180 180 144 82
235 238 243 233 213 198 202 207 206 208 232 250 258 265 264 269 261 258 261 269 254 236 220 178 171 158 163 150 147 144 137 122 47 86 106 126 134 158 177 128 156 153 150
244 244 245 245 220 200 206 216 213 216 246 255 257 255 260 262 258 252 256 258 250 233 207 166 164 158 164 161 151 152 157 175 140 124 108 85 120 109 170 186 154 174 154
279 280 255 217 224 216 214 211 220 234 252 257 256 254 255 252 259 257 253 242 240 222 176 163 151 153 158 149 150 163 169 144 152 148 141 131 128 142 148 143 159 159 157
265 267 245 229 233 236 222 224 223 236 246 249 251 252 250 247 250 256 242 216 230 196 165 154 149 158 151 145 137 136 131 127 135 133 135 147 148 174 169 146 131 130 131
260 260 258 252 245 239 236 231 224 228 234 240 239 244 246 247 250 244 213 216 206 160 157 138 130 129 130 108 130 131 125 129 132 135 148 148 148 154 128 104 77 89 111
266 259 256 244 243 242 240 229 227 233 231 233 244 243 246 254 256 193 174 155 130 103 115 115 122 108 95 115 112 115 122 137 145 147 151 141 120 112 119 120 110 137 116
268 263 260 252 243 239 234 229 230 234 231 238 237 241 242 244 229 185 160 152 129 136 122 119 116 115 127 127 122 125 129 141 138 143 149 144 146 139 161 149 138 150 175
270 263 253 248 240 235 232 240 216 216 238 237 237 232 235 236 178 175 153 111 140 148 124 129 130 136 143 146 150 153 153 150 158 162 148 140 152 155 177 167 166 204 206
271 263 257 247 235 225 227 231 233 210 213 214 218 226 242 223 146 137 124 132 144 122 125 135 136 141 142 146 157 160 151 168 155 151 152 157 148 156 165 183 199 199 228
270 263 259 263 255 219 202 201 205 211 212 225 202 200 202 183 135 128 138 125 115 101 126 134 140 143 144 157 159 162 150 152 143 139 142 151 154 157 162 210 170 179 191
279 277 283 289 94 105 142 168 186 185 148 129 97 100 129 112 124 132 145 119 124 121 128 134 139 140 152 162 158 148 150 145 141 140 145 157 162 136 126 147 115 66 129
298 298 298 108 103 106 115 130 113 123 111 111 144 143 136 126 125 127 103 110 117 122 128 129 136 139 132 133 137 133 131 136 142 135 149 145 140 139 162 183 181 164 182
303 312 335 107 104 107 107 116 113 116 123 126 131 128 116 120 122 111 112 118 119 119 123 128 135 139 129 131 125 125 131 134 144 133 143 143 148 160 178 170 181 145 150
311 318 346 76 106 102 96 99 106 106 104 102 105 106 98 96 100 105 107 105 112 117 120 116 113 118 135 139 144 136 132 138 143 140 147 149 150 162 159 160 160 142 118
301 300 76 89 97 104 102 103 103 104 105 108 107 98 92 93 91 90 88 85 82 75 67 77 98 99 81 76 85 126 140 153 159 146 141 140 142 141 124 99 111 99 88
297 318 66 78 98 104 112 116 113 108 105 98 96 94 91 91 90 85 82 82 78 73 65 68 66 86 92 80 75 77 98 93 94 106 112 104 101 87 81 81 69 81 84
250 115 93 81 89 103 111 112 100 96 91 93 94 93 93 91 85 80 76 75 74 73 65 63 63 63 69 80 82 87 83 75 85 90 89 93 93 87 86 81 80 74 75
153 117 108 110 94 95 97 98 95 92 93 93 92 90 90 86 80 77 74 74 74 68 69 62 62 65 64 62 67 73 78 78 78 78 88 88 90 83 85 88 79 74 66